カタログに戻る

EKRAN 11

運用中通信GEO
NORAD 14377·PAYLOAD·🇷🇺 Russia

打ち上げ Sep 29, 1983 から Baikonur Cosmodrome

Loading…

TLE

最新Source: Space-Track

元期: Sep 13, 2026, 14:26 UTC

1 14377U 83100A   26256.60192081 -.00000278  00000-0  00000-0 0  9990
2 14377   7.5876 303.9729 0003491 317.2747  42.6178  1.00231721 48263

AllMySatでEKRAN 11をリアルタイム追跡

Download on the App Store